[[{"header":{"parameterUnit":"m.s-1","parameterCategory":1,"la1":30.2991,"la2":30.254,"lo1":-89.0895,"lo2":-89.0444,"dy":0.0017,"dx":0.0017,"nx":28,"ny":28,"refTime":"2024-08-24T03:00:00:Z","depth":0,"parameterNumber":2,"parameterNumberName":"U-component_of_WINDS"},"data":[0,0,0,0,0,0,0,0,0,0,0,0,0,0,0,0,0,0,0,0,0,0,0,0,0,0,0,0,0,0,0,0,0,0,0,0,0,0,0,0,0,0,0,0,0,0,0,0,0,0,0,0,0,0,0,0,0,0,-2.7142,-2.7142,0,-2.7142,-2.7142,-2.7142,-2.7047,-2.7045,-2.7042,-2.704,-2.7041,-2.7043,-2.7046,0,0,0,0,0,0,0,0,0,0,0,0,0,-2.706,-2.7062,-2.7142,-2.7142,-2.7142,-2.7142,-2.7142,-2.7142,-2.7048,-2.7045,-2.7042,-2.7039,-2.704,-2.7043,-2.7046,0,0,0,0,0,0,0,0,0,0,0,0,0,-2.7081,-2.7062,-2.7142,-2.7095,-2.7091,-2.7142,-2.7142,-2.7142,-2.7048,-2.7045,-2.7041,-2.7037,-2.7039,-2.7043,-2.7046,-2.7143,0,0,-2.7057,-2.7059,0,0,0,0,0,0,0,0,-2.708,-2.7084,-2.7102,-2.7098,-2.7094,-2.7091,-2.7113,-2.7143,-2.7049,-2.7065,-2.704,-2.7036,-2.7061,-2.7062,-2.7071,-2.7143,-2.7143,-2.7057,-2.706,-2.7061,-2.7062,0,0,0,0,0,0,0,-2.7079,-2.7084,-2.7142,-2.7102,-2.7097,-2.7074,-2.7073,-2.7119,-2.7084,-2.7063,-2.7056,-2.7057,-2.7058,-2.7067,-2.707,-2.7143,-2.7057,-2.7061,-2.7063,-2.7064,-2.7294,-2.7298,0,0,0,0,0,0,-2.7084,-2.7083,-2.7142,-2.7142,-2.7077,-2.7078,-2.7077,-2.7096,-2.7083,-2.7077,-2.706,-2.7053,-2.7063,-2.7066,-2.707,-2.7181,-2.7061,-2.7064,-2.7066,-2.729,-2.7295,-2.7299,0,0,0,0,0,0,-2.7082,-2.709,-2.7142,-2.7111,-2.7116,-2.7084,-2.7105,-2.7098,-2.7107,-2.7081,-2.7074,-2.7077,-2.706,-2.7065,-2.7125,-2.718,-2.7066,-2.7069,-2.7285,-2.7292,-2.7297,-2.7406,0,0,0,0,0,0,-2.708,-2.709,-2.7127,-2.7112,-2.7118,-2.7198,-2.7109,-2.71,-2.7113,-2.7103,-2.7095,-2.709,-2.7058,-2.712,-2.7129,-2.7183,-2.7072,-2.728,-2.7288,-2.7295,-2.7397,-2.7415,-2.743,0,0,0,0,0,-2.7078,-2.7158,-2.7129,-2.7136,-2.7163,-2.7201,-2.7204,-2.7166,-2.7118,-2.7154,-2.7138,-2.709,-2.7173,-2.7128,-2.7136,-2.7192,-2.7277,-2.7286,-2.7295,-2.739,-2.7411,-2.7429,0,0,0,0,0,0,-2.718,-2.7155,-2.7123,-2.72,-2.7204,-2.7185,-2.723,-2.719,-2.7207,-2.7197,-2.7149,-2.7148,-2.7216,-2.721,-2.716,-2.7284,-2.7216,-2.7227,-2.7286,-2.7306,-2.7322,-2.7321,-2.7075,0,0,0,0,0,-2.7211,-2.7244,-2.7221,-2.7292,-2.7295,-2.7263,-2.7278,-2.7248,-2.7249,-2.725,-2.7238,-2.7242,-2.7268,-2.7287,-2.731,-2.7396,-2.7392,-2.7438,-2.7455,-2.7468,-2.7478,-2.7522,-2.7542,-2.7329,-2.7329,-2.7329,0,0,-2.7277,-2.7267,-2.7291,-2.7312,-2.7311,-2.7346,-2.7264,-2.7305,-2.7331,-2.7257,-2.7313,-2.7304,-2.7305,-2.7378,-2.741,-2.7375,-2.7536,-2.748,-2.7491,-2.7493,-2.7533,-2.7554,-2.7572,-2.7335,-2.7334,-2.7333,0,0,-2.7413,-2.741,-2.7468,-2.7468,-2.7467,-2.7445,-2.7459,-2.7447,-2.7438,-2.7493,-2.7438,-2.7468,-2.7515,-2.7517,-2.7525,-2.7662,-2.7618,-2.7671,-2.7756,-2.7799,-2.7816,-2.7831,-2.7879,-2.7896,-2.7681,-2.7681,-2.7682,0,-2.7495,-2.7546,-2.7503,-2.7547,-2.7558,-2.7491,-2.7549,-2.7552,-2.7559,-2.7568,-2.7529,-2.7586,-2.7582,-2.7654,-2.7688,-2.7696,-2.771,-2.7671,-2.7817,-2.7831,-2.7844,-2.7889,-2.7908,-2.7688,-2.7687,-2.7686,-2.7686,0,-2.7645,-2.7681,-2.7728,-2.7736,-2.7751,-2.7803,-2.7767,-2.7789,-2.7757,-2.7739,-2.7796,-2.7789,-2.7809,-2.7824,-2.7794,-2.7892,-2.7871,-2.7825,-2.7756,-2.7872,-2.7913,-2.793,-2.7697,-2.7694,-2.7693,-2.7691,0,0,-2.7846,-2.7829,-2.7847,-2.7849,-2.7843,-2.787,-2.7918,-2.7937,-2.7955,-2.7963,-2.8001,-2.8042,-2.8,-2.8009,-2.7978,-2.8017,-2.8124,-2.7966,-2.7965,-2.7995,-2.8231,-2.8264,-2.8285,-2.8096,-2.8099,-2.8101,-2.823,0,-2.7978,-2.8058,-2.8021,-2.8105,-2.8137,-2.8075,-2.8116,-2.8117,-2.8102,-2.8127,-2.8109,-2.8139,-2.8081,-2.8086,-2.8121,-2.8104,-2.8171,-2.8094,-2.8131,-2.8133,-2.8132,-2.8307,-2.8343,-2.8465,-2.8247,-2.8249,-2.8251,0,-2.8142,-2.8155,-2.8243,-2.823,-2.8242,-2.828,-2.8294,-2.8319,-2.8318,-2.8304,-2.8313,-2.8274,-2.832,-2.8252,-2.8314,-2.8262,-2.8275,-2.8269,-2.8273,-2.8274,-2.8198,-2.8312,-2.8503,-2.8521,-2.8277,-2.8275,-2.8273,0,-2.8279,-2.8319,-2.8376,-2.838,-2.8366,-2.8394,-2.839,-2.8385,-2.8399,-2.8411,-2.8419,-2.8437,-2.8447,-2.8462,-2.8428,-2.8382,-2.8495,-2.8424,-2.8484,-2.8485,-2.851,-2.8509,-2.8705,-2.852,-2.852,-2.8519,-2.8519,0,-2.8429,-2.8485,-2.8436,-2.8472,-2.8532,-2.8488,-2.8549,-2.8538,-2.8535,-2.8567,-2.8514,-2.8545,-2.8499,-2.8526,-2.85,-2.8555,-2.856,-2.855,-2.8542,-2.8554,-2.8555,-2.8561,-2.8551,-2.8524,-2.8523,-2.8522,-2.8521,0,-2.8592,-2.8562,-2.862,-2.8602,-2.8598,-2.8644,-2.8628,-2.866,-2.864,-2.8681,-2.8688,-2.8658,-2.8686,-2.8654,-2.8681,-2.8663,-2.8737,-2.8717,-2.8737,-2.8731,-2.8793,-2.8787,-2.8999,-2.9024,-2.8824,-2.8826,-2.8828,0,-2.869,-2.8731,-2.8717,-2.8734,-2.8733,-2.8762,-2.8774,-2.8733,-2.8749,-2.8751,-2.8782,-2.8806,-2.8823,-2.8871,-2.8851,-2.8871,-2.8851,-2.8923,-2.8853,-2.8864,-2.8851,-2.8848,-2.8852,-2.8938,-2.894,-2.8942,-2.8944,0,-2.8866,-2.8849,-2.8869,-2.8885,-2.8902,-2.8912,-2.8919,-2.8936,-2.8892,-2.8913,-2.8941,-2.8954,-2.898,-2.9004,-2.9018,-2.9013,-2.8972,-2.8966,-2.898,-2.8993,-2.9002,-2.8997,-2.8775,-2.8961,-2.8959,-2.8958,-2.8957,-2.8956,-2.8999,-2.9032,-2.9027,-2.9051,-2.9051,-2.9058,-2.9087,-2.907,-2.9093,-2.911,-2.9084,-2.9119,-2.9117,-2.9131,-2.9131,-2.9157,-2.9126,-2.9148,-2.9153,-2.9159,-2.9168,-2.8999,-2.916,-2.9159,-2.9159,-2.9158,-2.9158,0,-2.9171,-2.9165,-2.9188,-2.9198,-2.9217,-2.9175,-2.918,-2.9199,-2.923,-2.923,-2.9248,-2.9279,-2.9302,-2.9284,-2.9303,-2.9328,-2.9309,-2.9334,-2.9332,-2.9331,-2.9195,-2.918,-2.9349,-2.9349,-2.9349,-2.9349,-2.9349,-2.9349,-2.9263,-2.9317,-2.9299,-2.9352,-2.9345,-2.9378,-2.9384,-2.939,-2.939,-2.9428,-2.9446,-2.9434,-2.9427,-2.9445,-2.9464,-2.9458,-2.9467,-2.9499,-2.9487,-2.936,-2.9341,-2.9323,-2.9308,-2.9502,-2.9502,-2.962,-2.9621,-2.9622]},{"header":{"parameterUnit":"m.s-1","parameterCategory":1,"la1":30.2991,"la2":30.254,"lo1":-89.0895,"lo2":-89.0444,"dy":0.0017,"dx":0.0017,"nx":28,"ny":28,"refTime":"2024-08-24T03:00:00:Z","depth":0,"parameterNumber":3,"parameterNumberName":"V-component_of_WINDS"},"data":[0,0,0,0,0,0,0,0,0,0,0,0,0,0,0,0,0,0,0,0,0,0,0,0,0,0,0,0,0,0,0,0,0,0,0,0,0,0,0,0,0,0,0,0,0,0,0,0,0,0,0,0,0,0,0,0,0,0,0.7935,0.7935,0,0.7895,0.7895,0.7894,0.7862,0.7862,0.7862,0.7861,0.7817,0.7816,0.7815,0,0,0,0,0,0,0,0,0,0,0,0,0,0.798,0.798,0.7935,0.7935,0.7934,0.7895,0.7895,0.7894,0.7862,0.7862,0.7861,0.7861,0.7817,0.7816,0.7815,0,0,0,0,0,0,0,0,0,0,0,0,0,0.7953,0.798,0.7935,0.7914,0.7911,0.7896,0.7895,0.7894,0.7862,0.7862,0.7861,0.7861,0.7817,0.7816,0.7815,0.7816,0,0,0.781,0.781,0,0,0,0,0,0,0,0,0.7954,0.7951,0.7917,0.7915,0.7912,0.7883,0.7894,0.7868,0.7862,0.7881,0.7861,0.7861,0.7839,0.7836,0.7829,0.7814,0.7812,0.781,0.781,0.7809,0.7809,0,0,0,0,0,0,0,0.7956,0.7952,0.7919,0.7917,0.7914,0.7905,0.79,0.7889,0.7863,0.7879,0.7877,0.7873,0.7837,0.7831,0.7828,0.7811,0.781,0.7809,0.7808,0.7808,0.7796,0.7796,0,0,0,0,0,0,0.7962,0.7954,0.792,0.7918,0.7933,0.7904,0.7899,0.7893,0.7863,0.7858,0.7873,0.7871,0.7833,0.7829,0.7826,0.7826,0.7809,0.7808,0.7807,0.7795,0.7796,0.7797,0,0,0,0,0,0,0.7963,0.7959,0.7922,0.7936,0.793,0.7904,0.7897,0.7892,0.7886,0.7858,0.7853,0.7871,0.7833,0.7828,0.7819,0.7824,0.7807,0.7806,0.7795,0.7796,0.7796,0.7827,0,0,0,0,0,0,0.7964,0.796,0.7961,0.7936,0.793,0.7917,0.7898,0.7892,0.7884,0.7881,0.7855,0.785,0.7832,0.7821,0.7818,0.7822,0.7805,0.7794,0.7795,0.7796,0.7825,0.7828,0.7831,0,0,0,0,0,0.7966,0.797,0.7961,0.7957,0.793,0.7917,0.7913,0.7893,0.7884,0.7885,0.7867,0.7851,0.7825,0.7821,0.7817,0.7821,0.7794,0.7795,0.7796,0.7824,0.7828,0.7831,0,0,0,0,0,0,0.7994,0.7966,0.7956,0.7952,0.7937,0.7912,0.7911,0.7898,0.7884,0.7882,0.7856,0.7851,0.7845,0.7832,0.7828,0.7821,0.7807,0.7807,0.783,0.7833,0.7836,0.7839,0.7804,0,0,0,0,0,0.8,0.7993,0.7968,0.7967,0.796,0.7937,0.7931,0.7917,0.79,0.7893,0.7875,0.7859,0.7847,0.7839,0.7826,0.7823,0.7817,0.7824,0.7827,0.783,0.783,0.7828,0.7831,0.78,0.78,0.78,0,0,0.8011,0.7995,0.7992,0.7972,0.7959,0.7951,0.7932,0.7924,0.7918,0.7891,0.7883,0.7869,0.7849,0.7843,0.784,0.7832,0.7837,0.7831,0.7833,0.7832,0.7829,0.7832,0.7835,0.7801,0.7801,0.7801,0,0,0.8029,0.8016,0.8014,0.8002,0.7983,0.7968,0.7968,0.7945,0.7935,0.7926,0.7906,0.7898,0.7878,0.7865,0.7855,0.787,0.7854,0.7866,0.7882,0.788,0.7882,0.7884,0.7889,0.7892,0.7867,0.7867,0.7867,0,0.8045,0.8034,0.8014,0.8008,0.8,0.7977,0.7975,0.7964,0.7941,0.7936,0.7928,0.7903,0.7888,0.7879,0.7883,0.7876,0.7874,0.7869,0.7884,0.7886,0.7887,0.7892,0.7894,0.7868,0.7868,0.7868,0.7868,0,0.8055,0.8047,0.8048,0.8029,0.8021,0.8016,0.7995,0.7989,0.7976,0.7962,0.7953,0.7935,0.7918,0.7915,0.7902,0.7905,0.7901,0.7889,0.7874,0.7892,0.7896,0.7898,0.7871,0.787,0.7869,0.7869,0,0,0.8087,0.8059,0.8059,0.8051,0.8029,0.8023,0.8018,0.8003,0.7999,0.7984,0.7979,0.7963,0.7953,0.7942,0.7927,0.7926,0.7939,0.7914,0.7913,0.7919,0.7941,0.795,0.7953,0.7929,0.7929,0.7929,0.7943,0,0.8101,0.8092,0.8074,0.807,0.8063,0.8042,0.8038,0.8024,0.8011,0.8002,0.7987,0.7976,0.7963,0.7957,0.7954,0.7938,0.7943,0.7936,0.7923,0.7923,0.7929,0.7955,0.7964,0.7978,0.7944,0.7945,0.7945,0,0.8115,0.8104,0.81,0.808,0.8077,0.8073,0.8059,0.8051,0.8035,0.8026,0.8015,0.7999,0.7992,0.798,0.797,0.7966,0.7959,0.795,0.795,0.7948,0.7935,0.7953,0.7982,0.7984,0.7947,0.7947,0.7947,0,0.814,0.8124,0.8119,0.8113,0.8089,0.8088,0.8077,0.8061,0.8054,0.8041,0.8036,0.8023,0.8015,0.8005,0.7985,0.7978,0.7977,0.7963,0.7969,0.7969,0.7969,0.7969,0.7997,0.7965,0.7965,0.7965,0.7965,0,0.8157,0.8155,0.813,0.8127,0.8125,0.8105,0.8103,0.809,0.8076,0.807,0.8051,0.8046,0.8021,0.8012,0.7997,0.7991,0.7988,0.798,0.7975,0.7981,0.7982,0.7976,0.7975,0.7966,0.7966,0.7966,0.7966,0,0.8183,0.8167,0.816,0.814,0.8135,0.8134,0.8115,0.8112,0.8098,0.8091,0.8088,0.8066,0.8056,0.8036,0.8019,0.8009,0.8006,0.7999,0.8012,0.8009,0.8016,0.8016,0.8041,0.8043,0.801,0.8011,0.8011,0,0.8195,0.8194,0.8173,0.8169,0.816,0.8153,0.8146,0.8126,0.812,0.8102,0.8101,0.8089,0.8079,0.8062,0.8044,0.8032,0.8024,0.8034,0.8022,0.8028,0.8024,0.8025,0.8024,0.8036,0.8037,0.8037,0.8037,0,0.8218,0.821,0.8202,0.8191,0.8184,0.8174,0.8163,0.816,0.8138,0.8131,0.8121,0.8113,0.8097,0.8086,0.8071,0.8059,0.8045,0.8042,0.8042,0.8048,0.8055,0.8052,0.8019,0.8041,0.804,0.804,0.804,0.804,0.8237,0.8235,0.8221,0.8213,0.8203,0.8194,0.8189,0.8176,0.8168,0.8154,0.8143,0.8134,0.8118,0.8097,0.8087,0.8079,0.8072,0.8072,0.8073,0.8073,0.8076,0.8057,0.8076,0.8076,0.8076,0.8076,0.8075,0,0.8259,0.825,0.8242,0.8229,0.8222,0.8211,0.8198,0.8193,0.8186,0.8173,0.8164,0.8152,0.8142,0.8124,0.8111,0.8108,0.8101,0.8105,0.8105,0.8103,0.8083,0.8083,0.8111,0.8111,0.8111,0.8111,0.8111,0.8111,0.827,0.8266,0.8257,0.8249,0.8238,0.8231,0.8225,0.8216,0.8206,0.8194,0.8186,0.8175,0.816,0.8147,0.8136,0.8131,0.8127,0.8134,0.8127,0.8108,0.8104,0.8101,0.8102,0.8133,0.8133,0.8148,0.8148,0.8148]}]]